Simultaneous Nadir Overpasses (SNOs) Predictions

Prediction of SNOs between METOP-B and TERRA Satellite Orbit:

Table of predicted SNOs for the next 14.0 days since TLE Epoch: 5/23/2020
Index Date (METOP-B) Time (METOP-B) Lat,Lon (METOP-B) SZA (METOP-B ) Date (TERRA) Time (TERRA) Lat,Lon (TERRA) SZA (TERRA ) Distance(km) Time Diff (sec)
1 05/24/2020 16:02:01 -81.27, 164.07 116.96 05/24/2020 16:03:15 -81.17, 164.29 116.97 11.53 74
2 05/24/2020 16:52:33 81.32, -25.23 63.46 05/24/2020 16:52:34 81.33, -25.30 63.46 1.31 1
3 05/24/2020 17:43:14 -81.32, 142.07 116.55 05/24/2020 17:42:01 -81.32, 142.21 116.57 2.35 73
4 05/27/2020 11:36:15 -81.31,-126.89 117.12 05/27/2020 11:37:22 -81.31,-126.75 117.07 2.41 67
5 05/27/2020 12:26:54 81.32, 41.03 62.95 05/27/2020 12:26:48 81.32, 41.01 62.95 0.31 6
6 05/30/2020 07:10:37 -81.31, -60.60 117.57 05/30/2020 07:11:37 -81.31, -60.45 117.53 2.56 60
7 05/30/2020 08:01:16 81.32, 107.28 62.49 05/30/2020 08:01:03 81.31, 107.28 62.48 0.80 13
8 06/02/2020 02:44:58 -81.32, 6.07 117.93 06/02/2020 02:45:51 -81.32, 6.18 117.89 1.94 53
9 06/02/2020 03:35:37 81.32, 173.90 62.13 06/02/2020 03:35:17 81.32, 173.89 62.12 0.28 20
10 06/04/2020 22:19:18 -81.32, 72.72 118.25 06/04/2020 22:20:04 -81.32, 72.77 118.21 1.14 46




NCC Satellite Simultaneous Nadir Overpasses (SNOs) Prediction Service
